Grand Canyon, AZ

10:20 PM MST on March 23, 2017 (GMT -0700)
Grand Canyon National Park

Weather History for KGCN - February, 2012

Change the Weather History Date:

Thursday, February 2, 2012

  Actual Average Record
Temperature  
Mean Temperature 28 °F -  
Max Temperature 37 °F 42 °F 57 °F (2015)
Min Temperature 19 °F 14 °F -20 °F (1985)
Degree Days  
Heating Degree Days 37    
Moisture  
Dew Point 24 °F    
Average Humidity 79    
Maximum Humidity 93    
Minimum Humidity 59    
Precipitation  
Precipitation 0.00 in - - ()
Sea Level Pressure  
Sea Level Pressure 29.94 in    
Wind  
Wind Speed 3 mph (North)    
Max Wind Speed 10 mph    
Max Gust Speed 17 mph    
Visibility 8 miles    
Events Fog , Snow    
Averages and records for this station are not official NWS values.
T = Trace of Precipitation, MM = Missing Value Source: NWS Daily Summary

Daily Weather History Graph

Daily Weather History Graph

Search for Another Location

Airport or City:

Trip Planner

Search our weather history database for the weather conditions in past years. The results will help you decide how hot, cold, wet, or windy it might be!

Date:

Astronomy

Feb. 02, 2012 Rise Set
Actual Time 7:28 AM MST 5:56 PM MST
Civil Twilight 7:01 AM MST 6:23 PM MST
Nautical Twilight 6:31 AM MST 6:53 PM MST
Astronomical Twilight 6:01 AM MST 7:23 PM MST
Moon 1:14 PM MST (2/2) 3:10 AM MST (2/2)
Length of Visible Light 11h 21m
Length of Day
10h 27m
Waxing Gibbous, 74% of the Moon is Illuminated
Feb 2
Waxing Gibbous
Feb 7
Full
Feb 14
Last Quarter
Feb 21
New
Feb 29
First Quarter

Hourly Weather History & Observations

Time (MST) Temp. Windchill Dew Point Humidity Pressure Visibility Wind Dir Wind Speed Gust Speed Precip Events Conditions
12:54 AM 25.0 °F - 19.0 °F 78% 29.97 in 10.0 mi Calm Calm - N/A   Overcast
1:54 AM 27.0 °F - 21.0 °F 78% 29.96 in 10.0 mi Calm Calm - N/A   Overcast
2:54 AM 23.0 °F - 19.0 °F 85% 29.95 in 10.0 mi Calm Calm - N/A   Overcast
3:54 AM 21.9 °F - 19.0 °F 89% 29.94 in 10.0 mi Calm Calm - N/A   Clear
4:54 AM 19.9 °F - 16.0 °F 85% 29.93 in 10.0 mi Calm Calm - N/A   Clear
5:54 AM 19.0 °F - 16.0 °F 88% 29.94 in 10.0 mi Calm Calm - N/A   Mostly Cloudy
6:54 AM 19.4 °F - 17.6 °F 93% 29.94 in 10.0 mi Calm Calm - N/A   Overcast
7:54 AM 21.0 °F - 18.0 °F 88% 29.97 in 10.0 mi Calm Calm - N/A   Overcast
8:54 AM 26.1 °F - 19.9 °F 78% 29.96 in 10.0 mi Calm Calm - N/A   Clear
9:54 AM 34.0 °F 28.0 °F 23.0 °F 64% 29.93 in 10.0 mi NW 6.9 mph - N/A   Clear
10:54 AM 36.0 °F 30.3 °F 24.1 °F 62% 29.92 in 10.0 mi Variable 6.9 mph - N/A   Scattered Clouds
11:19 AM 37.4 °F 32.8 °F 24.8 °F 60% 29.92 in 10.0 mi Variable 5.8 mph - N/A   Mostly Cloudy
11:42 AM 37.4 °F 32.8 °F 24.8 °F 60% 29.91 in 10.0 mi West 5.8 mph - N/A   Mostly Cloudy
11:54 AM 36.0 °F 33.3 °F 24.1 °F 62% 29.91 in 10.0 mi Variable 3.5 mph - N/A   Mostly Cloudy
12:54 PM 37.0 °F 32.4 °F 23.0 °F 57% 29.88 in 10.0 mi WNW 5.8 mph - N/A   Clear
1:52 PM 37.4 °F 31.4 °F 24.8 °F 60% 29.89 in 10.0 mi North 8.1 mph 16.1 mph N/A   Mostly Cloudy
1:54 PM 37.0 °F 30.4 °F 24.1 °F 59% 29.87 in 10.0 mi North 9.2 mph - N/A   Overcast
2:17 PM 33.8 °F 25.8 °F 24.8 °F 70% 29.90 in 1.5 mi NE 10.4 mph - 0.00 in Snow Light Snow
2:25 PM 33.8 °F 26.4 °F 26.6 °F 75% 29.90 in 3.0 mi North 9.2 mph 17.3 mph 0.00 in Snow Light Snow
2:49 PM 32.0 °F 23.6 °F 26.6 °F 80% 29.91 in 1.5 mi North 10.4 mph 17.3 mph 0.00 in Snow Light Snow
2:51 PM 32.0 °F 24.2 °F 28.4 °F 87% 29.91 in 0.8 mi NNE 9.2 mph 17.3 mph 0.00 in Snow Light Snow
2:54 PM 32.0 °F 27.5 °F 28.0 °F 85% 29.92 in 0.5 mi North 4.6 mph 17.3 mph 0.00 in Fog , Snow Snow
3:01 PM 32.0 °F 27.5 °F 28.4 °F 87% 29.90 in 0.8 mi North 4.6 mph - 0.00 in Snow Light Snow
3:04 PM 32.0 °F 27.5 °F 28.4 °F 87% 29.90 in 1.0 mi North 4.6 mph - 0.00 in Snow Light Snow
3:10 PM 32.0 °F 28.7 °F 28.4 °F 87% 29.90 in 2.0 mi North 3.5 mph - 0.00 in Snow Light Snow
3:14 PM 33.8 °F 29.6 °F 28.4 °F 81% 29.90 in 8.0 mi North 4.6 mph - 0.00 in   Overcast
3:24 PM 33.8 °F 26.4 °F 28.4 °F 81% 29.90 in 10.0 mi NW 9.2 mph - 0.00 in   Overcast
3:40 PM 33.8 °F 29.6 °F 28.4 °F 81% 29.91 in 10.0 mi Variable 4.6 mph - 0.00 in   Mostly Cloudy
3:54 PM 34.0 °F 28.0 °F 27.0 °F 75% 29.92 in 10.0 mi NW 6.9 mph - 0.00 in   Mostly Cloudy
4:45 PM 33.8 °F 28.6 °F 26.6 °F 75% 29.92 in 10.0 mi NW 5.8 mph - N/A   Partly Cloudy
4:54 PM 34.0 °F 28.8 °F 27.0 °F 75% 29.94 in 10.0 mi NW 5.8 mph - N/A   Partly Cloudy
5:54 PM 32.0 °F 28.7 °F 26.1 °F 79% 29.97 in 10.0 mi NW 3.5 mph - N/A   Clear
6:54 PM 28.0 °F - 25.0 °F 88% 30.01 in 10.0 mi Calm Calm - N/A   Overcast
7:54 PM 25.0 °F - 23.0 °F 92% 30.04 in 10.0 mi Calm Calm - N/A   Clear
8:54 PM 21.9 °F - 19.9 °F 92% 30.03 in 10.0 mi Calm Calm - N/A   Clear
9:54 PM 21.9 °F 15.7 °F 19.0 °F 89% 30.00 in 10.0 mi ENE 4.6 mph - N/A   Clear
10:54 PM 24.1 °F 16.0 °F 21.0 °F 88% 29.99 in 10.0 mi NE 6.9 mph - N/A   Clear
11:54 PM 21.0 °F 14.6 °F 19.0 °F 92% 30.00 in 10.0 mi NE 4.6 mph - N/A   Clear